| time (UTC) | temp F | wind direction | speed MPH | gust MPH | rain 1hr in | rain 24hr in | rain mn in | humidity % | barometer mb |
| 20260507151306 | 63 | 74 | 2.0 | 8.0 | 0.00 | 0.23 | 0.00 | 65 | 1018.1 |
| 20260507150806 | 63 | 38 | 4.0 | 7.0 | 0.00 | 0.23 | 0.00 | 66 | 1018.1 |
| 20260507150306 | 62 | 3 | 4.0 | 8.0 | 0.00 | 0.23 | 0.00 | 66 | 1018.1 |
| 20260507145807 | 61 | 1 | 3.0 | 7.0 | 0.00 | 0.23 | 0.00 | 70 | 1018.1 |
| 20260507143807 | 60 | 19 | 3.0 | 6.0 | 0.00 | 0.23 | 0.00 | 75 | 1018.2 |
| 20260507142307 | 58 | 33 | 3.0 | 7.0 | 0.00 | 0.23 | 0.00 | 79 | 1018.2 |
| 20260507141806 | 58 | 8 | 3.0 | 5.0 | 0.00 | 0.23 | 0.00 | 80 | 1018.2 |
| 20260507140806 | 57 | 42 | 2.0 | 5.0 | 0.00 | 0.23 | 0.00 | 82 | 1018.4 |
| 20260507140307 | 57 | 46 | 2.0 | 6.0 | 0.00 | 0.23 | 0.00 | 84 | 1018.4 |
| 20260507135806 | 56 | 349 | 3.0 | 6.0 | 0.00 | 0.23 | 0.00 | 84 | 1018.6 |
| 20260507133307 | 55 | 351 | 4.0 | 6.0 | 0.00 | 0.23 | 0.00 | 88 | 1018.6 |
| 20260507132307 | 54 | 340 | 1.0 | 5.0 | 0.00 | 0.23 | 0.00 | 90 | 1018.6 |
| 20260507131306 | 54 | 337 | 1.0 | 3.0 | 0.00 | 0.23 | 0.00 | 90 | 1018.5 |
| 20260507130807 | 54 | 338 | 3.0 | 6.0 | 0.00 | 0.23 | 0.00 | 91 | 1018.5 |
| 20260507130306 | 54 | 338 | 2.0 | 6.0 | 0.00 | 0.23 | 0.00 | 91 | 1018.4 |
| 20260507125806 | 53 | 338 | 1.0 | 5.0 | 0.00 | 0.23 | 0.00 | 91 | 1018.3 |
| 20260507125307 | 53 | 333 | 3.0 | 6.0 | 0.00 | 0.23 | 0.00 | 91 | 1018.3 |
| 20260507121805 | 52 | 313 | 2.0 | 3.0 | 0.00 | 0.23 | 0.00 | 92 | 1017.7 |
| 20260507121306 | 52 | 310 | 1.0 | 5.0 | 0.00 | 0.23 | 0.00 | 92 | 1017.7 |
| 20260507120306 | 51 | 311 | 1.0 | 3.0 | 0.00 | 0.23 | 0.00 | 92 | 1017.7 |
| 20260507115806 | 51 | 311 | 1.0 | 3.0 | 0.00 | 0.23 | 0.00 | 92 | 1017.7 |
| 20260507115307 | 51 | 311 | 2.0 | 3.0 | 0.00 | 0.23 | 0.00 | 92 | 1017.7 |
| 20260507113805 | 51 | 311 | 1.0 | 3.0 | 0.00 | 0.23 | 0.00 | 92 | 1017.6 |
| 20260507113306 | 51 | 311 | 1.0 | 3.0 | 0.00 | 0.23 | 0.00 | 92 | 1017.5 |
| 20260507112806 | 51 | 311 | 1.0 | 2.0 | 0.00 | 0.23 | 0.00 | 92 | 1017.5 |
| 20260507111806 | 51 | 311 | 2.0 | 3.0 | 0.00 | 0.23 | 0.00 | 92 | 1017.2 |
| 20260507111305 | 51 | 311 | 2.0 | 5.0 | 0.00 | 0.23 | 0.00 | 92 | 1017.2 |
| 20260507110806 | 51 | 309 | 2.0 | 6.0 | 0.00 | 0.23 | 0.00 | 92 | 1017.2 |
| 20260507110306 | 51 | 336 | 2.0 | 3.0 | 0.00 | 0.23 | 0.00 | 92 | 1017.2 |
| 20260507105806 | 51 | 19 | 1.0 | 3.0 | 0.00 | 0.23 | 0.00 | 92 | 1017.1 |
| 20260507105307 | 51 | 19 | 1.0 | 3.0 | 0.00 | 0.23 | 0.00 | 92 | 1017.1 |
| 20260507104806 | 51 | 19 | 2.0 | 3.0 | 0.00 | 0.23 | 0.00 | 92 | 1017.1 |
| 20260507104306 | 51 | 19 | 1.0 | 3.0 | 0.00 | 0.23 | 0.00 | 91 | 1016.7 |
| 20260507102806 | 51 | 39 | 0.0 | 2.0 | 0.00 | 0.23 | 0.00 | 91 | 1016.7 |
| 20260507102307 | 51 | 39 | 1.0 | 1.0 | 0.00 | 0.23 | 0.00 | 91 | 1016.6 |
| 20260507100805 | 52 | 39 | 0.0 | 1.0 | 0.00 | 0.23 | 0.00 | 90 | 1016.3 |
| 20260507100306 | 52 | 39 | 1.0 | 2.0 | 0.00 | 0.23 | 0.00 | 90 | 1016.1 |
| 20260507095306 | 52 | 39 | 1.0 | 1.0 | 0.00 | 0.23 | 0.00 | 90 | 1016.1 |
| 20260507094305 | 52 | 40 | 1.0 | 3.0 | 0.00 | 0.23 | 0.00 | 90 | 1016.0 |
| 20260507092307 | 53 | 40 | 1.0 | 2.0 | 0.00 | 0.23 | 0.00 | 89 | 1015.9 |
| 20260507090306 | 53 | 39 | 0.0 | 1.0 | 0.00 | 0.23 | 0.00 | 89 | 1016.0 |
| 20260507085805 | 53 | 39 | 1.0 | 3.0 | 0.00 | 0.23 | 0.00 | 88 | 1016.0 |
| 20260507084806 | 53 | 40 | 1.0 | 3.0 | 0.00 | 0.23 | 0.00 | 88 | 1015.8 |
| 20260507083805 | 54 | 41 | 0.0 | 1.0 | 0.00 | 0.23 | 0.00 | 87 | 1015.9 |
| 20260507082306 | 54 | 42 | 0.0 | 3.0 | 0.00 | 0.23 | 0.00 | 87 | 1015.6 |
| 20260507081806 | 54 | 42 | 1.0 | 3.0 | 0.00 | 0.23 | 0.00 | 87 | 1015.6 |
| 20260507080305 | 54 | 38 | 2.0 | 3.0 | 0.00 | 0.23 | 0.00 | 87 | 1015.6 |
| 20260507075805 | 54 | 23 | 3.0 | 6.0 | 0.00 | 0.23 | 0.00 | 87 | 1015.5 |
| 20260507075307 | 55 | 40 | 2.0 | 7.0 | 0.00 | 0.23 | 0.00 | 87 | 1015.5 |
| 20260507073805 | 55 | 43 | 2.0 | 6.0 | 0.00 | 0.23 | 0.00 | 86 | 1015.6 |
| 20260507073306 | 55 | 51 | 2.0 | 7.0 | 0.00 | 0.23 | 0.00 | 86 | 1015.6 |
| 20260507072806 | 55 | 36 | 3.0 | 7.0 | 0.00 | 0.23 | 0.00 | 86 | 1015.6 |
| 20260507071805 | 55 | 30 | 2.0 | 7.0 | 0.00 | 0.23 | 0.00 | 86 | 1015.6 |
| 20260507070806 | 55 | 36 | 2.0 | 6.0 | 0.00 | 0.23 | 0.00 | 86 | 1015.7 |
| 20260507065805 | 55 | 42 | 1.0 | 5.0 | 0.00 | 0.23 | 0.00 | 86 | 1015.7 |
| 20260507065306 | 55 | 62 | 1.0 | 3.0 | 0.00 | 0.23 | 0.00 | 86 | 1015.8 |
| 20260507064805 | 55 | 62 | 2.0 | 6.0 | 0.00 | 0.23 | 0.00 | 86 | 1015.5 |
| 20260507064305 | 55 | 44 | 3.0 | 6.0 | 0.00 | 0.23 | 0.00 | 86 | 1015.5 |
| 20260507063305 | 56 | 78 | 2.0 | 7.0 | 0.00 | 0.23 | 0.00 | 86 | 1015.4 |
| 20260507062306 | 56 | 76 | 2.0 | 5.0 | 0.00 | 0.23 | 0.00 | 86 | 1015.3 |
| 20260507055805 | 56 | 79 | 3.0 | 7.0 | 0.00 | 0.23 | 0.00 | 84 | 1015.0 |
| 20260507054805 | 56 | 77 | 3.0 | 6.0 | 0.00 | 0.23 | 0.00 | 84 | 1015.0 |
| 20260507053805 | 57 | 81 | 3.0 | 6.0 | 0.00 | 0.23 | 0.00 | 83 | 1015.0 |
| 20260507052306 | 57 | 80 | 1.0 | 6.0 | 0.00 | 0.23 | 0.00 | 82 | 1015.1 |
| 20260507051305 | 57 | 69 | 3.0 | 7.0 | 0.00 | 0.23 | 0.00 | 81 | 1015.2 |
| 20260507050931 | 57 | 66 | 3.0 | 6.0 | 0.00 | 0.23 | 0.00 | 81 | 1015.2 |
| 20260507045804 | 57 | 65 | 2.0 | 6.0 | 0.00 | 0.23 | 0.23 | 80 | 1015.2 |
| 20260507044805 | 57 | 50 | 3.0 | 6.0 | 0.00 | 0.23 | 0.23 | 80 | 1015.2 |
| 20260507043805 | 58 | 65 | 4.0 | 10.0 | 0.00 | 0.23 | 0.23 | 79 | 1015.3 |
| 20260507042306 | 58 | 58 | 3.0 | 6.0 | 0.00 | 0.23 | 0.23 | 78 | 1015.5 |
| 20260507040304 | 58 | 50 | 5.0 | 12.0 | 0.00 | 0.23 | 0.23 | 77 | 1015.7 |
| 20260507033805 | 58 | 42 | 5.0 | 12.0 | 0.00 | 0.23 | 0.23 | 76 | 1015.6 |
| 20260507033304 | 59 | 35 | 7.0 | 13.0 | 0.00 | 0.23 | 0.23 | 76 | 1015.5 |
| 20260507032805 | 59 | 15 | 6.0 | 12.0 | 0.00 | 0.23 | 0.23 | 76 | 1015.5 |
| 20260507031304 | 59 | 24 | 4.0 | 10.0 | 0.00 | 0.23 | 0.23 | 76 | 1015.5 |
| 20260507030804 | 59 | 33 | 5.0 | 10.0 | 0.00 | 0.23 | 0.23 | 76 | 1015.2 |
| 20260507024805 | 59 | 31 | 6.0 | 13.0 | 0.00 | 0.23 | 0.23 | 79 | 1014.9 |
| 20260507024304 | 59 | 31 | 7.0 | 14.0 | 0.00 | 0.23 | 0.23 | 79 | 1014.8 |
| 20260507022306 | 60 | 48 | 5.0 | 7.0 | 0.00 | 0.23 | 0.23 | 79 | 1014.5 |
| 20260507020804 | 60 | 51 | 5.0 | 10.0 | 0.00 | 0.23 | 0.23 | 79 | 1014.2 |
| 20260507020304 | 60 | 36 | 6.0 | 12.0 | 0.00 | 0.23 | 0.23 | 80 | 1014.2 |
| 20260507014804 | 60 | 48 | 6.0 | 8.0 | 0.00 | 0.23 | 0.23 | 80 | 1013.5 |
| 20260507012808 | 60 | 45 | 6.0 | 12.0 | 0.00 | 0.23 | 0.23 | 80 | 1013.1 |
| 20260507012308 | 60 | 43 | 4.0 | 12.0 | 0.00 | 0.23 | 0.23 | 80 | 1013.0 |
| 20260507011809 | 60 | 61 | 5.0 | 10.0 | 0.00 | 0.23 | 0.23 | 80 | 1013.0 |
| 20260507011308 | 60 | 29 | 7.0 | 12.0 | 0.00 | 0.23 | 0.23 | 79 | 1013.0 |
| 20260507010309 | 60 | 32 | 5.0 | 10.0 | 0.00 | 0.23 | 0.23 | 79 | 1013.0 |
| 20260507005809 | 60 | 40 | 3.0 | 6.0 | 0.00 | 0.23 | 0.23 | 79 | 1012.8 |
| 20260507005308 | 60 | 36 | 5.0 | 12.0 | 0.00 | 0.23 | 0.23 | 79 | 1012.8 |
| 20260507004808 | 60 | 52 | 4.0 | 9.0 | 0.00 | 0.23 | 0.23 | 79 | 1012.9 |
| 20260507004308 | 60 | 9 | 6.0 | 14.0 | 0.00 | 0.23 | 0.23 | 79 | 1012.7 |
| 20260507003808 | 60 | 30 | 5.0 | 13.0 | 0.00 | 0.23 | 0.23 | 79 | 1012.8 |
| 20260507003308 | 60 | 43 | 6.0 | 13.0 | 0.00 | 0.23 | 0.23 | 79 | 1012.6 |
| 20260507002808 | 60 | 46 | 6.0 | 12.0 | 0.00 | 0.23 | 0.23 | 78 | 1012.6 |
| 20260506234808 | 61 | 33 | 5.0 | 12.0 | 0.00 | 0.23 | 0.23 | 77 | 1012.2 |
| 20260506234308 | 61 | 35 | 6.0 | 10.0 | 0.00 | 0.23 | 0.23 | 77 | 1012.2 |
| 20260506233308 | 61 | 34 | 3.0 | 12.0 | 0.00 | 0.23 | 0.23 | 76 | 1011.9 |
| 20260506231808 | 61 | 30 | 6.0 | 12.0 | 0.00 | 0.23 | 0.23 | 76 | 1011.8 |
| 20260506223808 | 62 | 14 | 6.0 | 10.0 | 0.00 | 0.23 | 0.23 | 76 | 1011.8 |
| 20260506222808 | 61 | 42 | 5.0 | 12.0 | 0.00 | 0.23 | 0.23 | 76 | 1011.6 |
| 20260506221308 | 61 | 47 | 3.0 | 10.0 | 0.00 | 0.23 | 0.23 | 77 | 1011.7 |
| 20260506215808 | 61 | 38 | 5.0 | 8.0 | 0.00 | 0.23 | 0.23 | 76 | 1011.3 |
| 20260506215308 | 61 | 19 | 5.0 | 10.0 | 0.00 | 0.23 | 0.23 | 76 | 1011.3 |
| 20260506213807 | 61 | 35 | 5.0 | 9.0 | 0.00 | 0.23 | 0.23 | 75 | 1011.7 |
| 20260506213308 | 62 | 7 | 5.0 | 9.0 | 0.00 | 0.23 | 0.23 | 75 | 1011.7 |
| 20260506211807 | 61 | 350 | 6.0 | 10.0 | 0.00 | 0.23 | 0.23 | 76 | 1011.7 |
| 20260506210307 | 60 | 21 | 3.0 | 7.0 | 0.00 | 0.23 | 0.23 | 76 | 1011.8 |
| 20260506205307 | 61 | 19 | 3.0 | 8.0 | 0.00 | 0.23 | 0.23 | 75 | 1011.8 |
| 20260506201807 | 60 | 358 | 5.0 | 12.0 | 0.00 | 0.23 | 0.23 | 76 | 1012.1 |
| 20260506200807 | 60 | 333 | 5.0 | 12.0 | 0.00 | 0.23 | 0.23 | 77 | 1012.3 |
| 20260506200307 | 60 | 345 | 6.0 | 12.0 | 0.00 | 0.23 | 0.23 | 78 | 1012.3 |
| 20260506194807 | 59 | 39 | 2.0 | 5.0 | 0.00 | 0.23 | 0.23 | 80 | 1012.7 |
| 20260506194307 | 58 | 348 | 3.0 | 6.0 | 0.00 | 0.23 | 0.23 | 80 | 1012.8 |
| 20260506191807 | 57 | 37 | 3.0 | 6.0 | 0.00 | 0.23 | 0.23 | 80 | 1012.6 |
| 20260506191308 | 57 | 42 | 4.0 | 6.0 | 0.00 | 0.23 | 0.23 | 81 | 1012.8 |
| 20260506185807 | 57 | 56 | 3.0 | 7.0 | 0.00 | 0.23 | 0.23 | 81 | 1012.7 |
| 20260506183807 | 57 | 27 | 6.0 | 12.0 | 0.00 | 0.23 | 0.23 | 82 | 1011.4 |
| 20260506183307 | 57 | 4 | 5.0 | 12.0 | 0.00 | 0.23 | 0.23 | 83 | 1011.4 |
| 20260506182807 | 57 | 13 | 6.0 | 10.0 | 0.00 | 0.23 | 0.23 | 83 | 1011.3 |
| 20260506180807 | 57 | 353 | 7.0 | 12.0 | 0.00 | 0.23 | 0.23 | 87 | 1012.0 |
| 20260506175807 | 55 | 21 | 5.0 | 10.0 | 0.00 | 0.23 | 0.23 | 89 | 1012.0 |
| 20260506174807 | 54 | 24 | 7.0 | 12.0 | 0.00 | 0.23 | 0.23 | 89 | 1012.0 |
| 20260506174307 | 54 | 33 | 5.0 | 12.0 | 0.00 | 0.23 | 0.23 | 90 | 1012.1 |
| 20260506173807 | 54 | 53 | 2.0 | 8.0 | 0.00 | 0.23 | 0.23 | 90 | 1012.1 |
| 20260506173307 | 54 | 23 | 3.0 | 12.0 | 0.00 | 0.23 | 0.23 | 90 | 1012.1 |
| 20260506172307 | 53 | 355 | 5.0 | 13.0 | 0.00 | 0.23 | 0.23 | 91 | 1012.1 |
| 20260506164307 | 53 | 354 | 5.0 | 12.0 | 0.01 | 0.23 | 0.23 | 91 | 1013.2 |
| 20260506161307 | 53 | 30 | 3.0 | 12.0 | 0.23 | 0.23 | 0.23 | 91 | 1012.5 |
| 20260506155306 | 53 | 36 | 6.0 | 10.0 | 0.23 | 0.23 | 0.23 | 89 | 1012.5 |
| 20260506154807 | 53 | 349 | 6.0 | 12.0 | 0.23 | 0.23 | 0.23 | 89 | 1012.5 |
| 20260506154306 | 53 | 358 | 6.0 | 12.0 | 0.22 | 0.22 | 0.22 | 87 | 1012.5 |
| 20260506153306 | 54 | 12 | 4.0 | 6.0 | 0.10 | 0.10 | 0.10 | 85 | 1013.4 |
| 20260506152807 | 54 | 270 | 3.0 | 5.0 | 0.04 | 0.04 | 0.04 | 84 | 1013.4 |